• In Hungary
  • List of Countries
  • For 7 days
  • Water Temperature
  • Satellite Maps
  • Weather Map
  • News
  • Weather Widgets
  • user-avatar
    Login

    Hourly Weather Sofia

    Today, 21 October, Saturday

    Time Temperature Precipitation Wind Pressure Humidity
    00:00 +14°C° 0 mm 1 mps 712 mmHg 55%
    01:00 +14°C° 0 mm 1 mps 712 mmHg 56%
    02:00 +14°C° 0 mm 1 mps 712 mmHg 56%
    03:00 +13°C° 0 mm 1 mps 712 mmHg 57%
    04:00 +13°C° 0 mm 1 mps 712 mmHg 58%
    05:00 +13°C° 0 mm 1 mps 712 mmHg 59%
    06:00 +13°C° 0 mm 1 mps 712 mmHg 59%
    07:00 +14°C° 0 mm 1 mps 712 mmHg 58%
    08:00 +14°C° 0 mm 1 mps 712 mmHg 58%
    09:00 +18°C° 0 mm 1 mps 713 mmHg 51%
    10:00 +20°C° 0 mm 1 mps 713 mmHg 44%
    11:00 +23°C° 0 mm 1 mps 713 mmHg 37%
    12:00 +23°C° 0 mm 1 mps 713 mmHg 35%
    13:00 +24°C° 0 mm 1 mps 713 mmHg 34%
    14:00 +24°C° 0 mm 1 mps 712 mmHg 32%
    15:00 +23°C° 0 mm 1 mps 712 mmHg 37%
    16:00 +22°C° 0 mm 1 mps 711 mmHg 41%
    17:00 +20°C° 0 mm 1 mps 711 mmHg 45%
    18:00 +19°C° 0 mm 1 mps 711 mmHg 49%
    19:00 +18°C° 0 mm 1 mps 711 mmHg 52%
    20:00 +15°C° 0 mm 1 mps 711 mmHg 55%
    21:00 +15°C° 0 mm 1 mps 711 mmHg 56%
    22:00 +14°C° 0 mm 1 mps 711 mmHg 57%
    23:00 +14°C° 0 mm 1 mps 711 mmHg 58%

    Tomorrow, 22 October, Sunday

    Time Temperature Precipitation Wind Pressure Humidity
    00:00 +14°C° 0 mm 1 mps 711 mmHg 58%
    01:00 +13°C° 0 mm 1 mps 711 mmHg 59%
    02:00 +13°C° 0 mm 1 mps 710 mmHg 59%
    03:00 +13°C° 0 mm 1 mps 710 mmHg 60%
    04:00 +12°C° 0 mm 1 mps 710 mmHg 61%
    05:00 +12°C° 0 mm 1 mps 710 mmHg 62%
    06:00 +13°C° 0 mm 1 mps 710 mmHg 61%
    07:00 +13°C° 0 mm 1 mps 710 mmHg 61%
    08:00 +14°C° 0 mm 1 mps 710 mmHg 61%
    09:00 +16°C° 0 mm 1 mps 710 mmHg 54%
    10:00 +19°C° 0 mm 1 mps 711 mmHg 47%
    11:00 +21°C° 0 mm 1 mps 711 mmHg 40%
    12:00 +22°C° 0 mm 1 mps 710 mmHg 38%
    13:00 +22°C° 0 mm 1 mps 710 mmHg 37%
    14:00 +23°C° 0 mm 1 mps 710 mmHg 35%
    15:00 +22°C° 0 mm 1 mps 709 mmHg 40%
    16:00 +20°C° 0 mm 1 mps 709 mmHg 44%
    17:00 +19°C° 0 mm 1 mps 709 mmHg 49%
    18:00 +18°C° 0 mm 1 mps 708 mmHg 52%
    19:00 +16°C° 0 mm 1 mps 708 mmHg 56%
    20:00 +14°C° 0 mm 1 mps 708 mmHg 60%
    21:00 +14°C° 0 mm 1 mps 708 mmHg 60%
    22:00 +14°C° 0 mm 1 mps 708 mmHg 61%
    23:00 +13°C° 0 mm 1 mps 708 mmHg 62%

    Day after tomorrow, 23 October, Monday

    Time Temperature Precipitation Wind Pressure Humidity
    00:00 +13°C° 0 mm 1 mps 708 mmHg 62%
    01:00 +13°C° 0 mm 2 mps 707 mmHg 62%
    02:00 +13°C° 0 mm 2 mps 707 mmHg 62%
    03:00 +13°C° 0 mm 2 mps 707 mmHg 64%
    04:00 +13°C° 0 mm 2 mps 706 mmHg 67%
    05:00 +12°C° 0 mm 2 mps 706 mmHg 70%
    06:00 +12°C° 0.5 mm 2 mps 705 mmHg 74%
    07:00 +12°C° 0.5 mm 2 mps 705 mmHg 78%
    08:00 +12°C° 0.5 mm 2 mps 705 mmHg 82%
    09:00 +13°C° 0.6 mm 2 mps 705 mmHg 79%
    10:00 +14°C° 0.6 mm 2 mps 705 mmHg 76%
    11:00 +15°C° 0.6 mm 2 mps 705 mmHg 74%
    12:00 +15°C° 0.8 mm 2 mps 704 mmHg 74%
    13:00 +15°C° 0.8 mm 1 mps 704 mmHg 74%
    14:00 +15°C° 0.8 mm 1 mps 704 mmHg 74%
    15:00 +15°C° 0.4 mm 1 mps 703 mmHg 77%
    16:00 +15°C° 0.4 mm 1 mps 703 mmHg 80%
    17:00 +14°C° 0.4 mm 1 mps 703 mmHg 82%
    18:00 +14°C° 1.2 mm 1 mps 703 mmHg 86%
    19:00 +13°C° 1.2 mm 2 mps 703 mmHg 90%
    20:00 +12°C° 1.2 mm 2 mps 703 mmHg 93%
    21:00 +12°C° 1.4 mm 2 mps 703 mmHg 94%
    22:00 +10°C° 1.4 mm 2 mps 703 mmHg 94%
    23:00 +10°C° 1.4 mm 2 mps 703 mmHg 94%

    24 October, Tuesday

    Time Temperature Precipitation Wind Pressure Humidity
    00:00 +10°C° 2.5 mm 2 mps 703 mmHg 94%
    01:00 +9°C° 2.5 mm 2 mps 703 mmHg 93%
    02:00 +8°C° 2.5 mm 2 mps 702 mmHg 93%
    03:00 +8°C° 1.2 mm 2 mps 702 mmHg 93%
    04:00 +8°C° 1.2 mm 2 mps 702 mmHg 92%
    05:00 +8°C° 1.2 mm 2 mps 702 mmHg 92%
    06:00 +8°C° 0.2 mm 2 mps 702 mmHg 91%
    07:00 +8°C° 0.2 mm 2 mps 702 mmHg 90%
    08:00 +8°C° 0.2 mm 2 mps 703 mmHg 89%
    09:00 +9°C° 0.1 mm 2 mps 703 mmHg 87%
    10:00 +9°C° 0.1 mm 2 mps 703 mmHg 85%
    11:00 +10°C° 0.1 mm 2 mps 703 mmHg 82%
    12:00 +10°C° 0.5 mm 2 mps 703 mmHg 83%
    13:00 +10°C° 0.5 mm 2 mps 703 mmHg 84%
    14:00 +10°C° 0.5 mm 3 mps 703 mmHg 84%
    15:00 +10°C° 0.4 mm 2 mps 704 mmHg 86%
    16:00 +9°C° 0.4 mm 2 mps 704 mmHg 87%
    17:00 +9°C° 0.4 mm 2 mps 704 mmHg 88%
    18:00 +9°C° 0.3 mm 2 mps 705 mmHg 90%
    19:00 +9°C° 0.3 mm 2 mps 705 mmHg 91%
    20:00 +9°C° 0.3 mm 3 mps 706 mmHg 93%
    21:00 +8°C° 1.2 mm 3 mps 706 mmHg 93%
    22:00 +7°C° 1.2 mm 4 mps 707 mmHg 93%
    23:00 +7°C° 1.2 mm 4 mps 707 mmHg 93%

    25 October, Wednesday

    Time Temperature Precipitation Wind Pressure Humidity
    00:00 +7°C° 0.9 mm 4 mps 707 mmHg 93%
    01:00 +6°C° 0.9 mm 4 mps 708 mmHg 93%
    02:00 +6°C° 0.9 mm 4 mps 708 mmHg 93%
    03:00 +6°C° 0.3 mm 4 mps 708 mmHg 92%
    04:00 +6°C° 0.3 mm 4 mps 709 mmHg 92%
    05:00 +5°C° 0.3 mm 4 mps 709 mmHg 92%
    06:00 +5°C° 0.3 mm 3 mps 710 mmHg 92%
    07:00 +5°C° 0.3 mm 3 mps 710 mmHg 91%
    08:00 +5°C° 0.3 mm 3 mps 710 mmHg 91%
    09:00 +5°C° 0.2 mm 3 mps 711 mmHg 90%
    10:00 +6°C° 0.2 mm 4 mps 711 mmHg 88%
    11:00 +6°C° 0.2 mm 4 mps 712 mmHg 86%
    12:00 +7°C° 0.1 mm 3 mps 712 mmHg 85%
    13:00 +8°C° 0.1 mm 3 mps 712 mmHg 83%
    14:00 +8°C° 0.1 mm 3 mps 712 mmHg 82%
    15:00 +8°C° 0 mm 3 mps 712 mmHg 83%
    16:00 +7°C° 0 mm 3 mps 712 mmHg 84%
    17:00 +7°C° 0 mm 3 mps 713 mmHg 85%
    18:00 +7°C° 0 mm 2 mps 713 mmHg 86%
    19:00 +6°C° 0 mm 2 mps 713 mmHg 88%
    20:00 +6°C° 0 mm 2 mps 714 mmHg 89%
    21:00 +6°C° 0 mm 2 mps 714 mmHg 89%
    22:00 +6°C° 0 mm 2 mps 714 mmHg 89%
    23:00 +7°C° 0 mm 1 mps 714 mmHg 89%

    26 October, Thursday

    Time Temperature Precipitation Wind Pressure Humidity
    00:00 +7°C° 0 mm 1 mps 714 mmHg 90%
    01:00 +7°C° 0 mm 1 mps 715 mmHg 90%
    02:00 +7°C° 0 mm 1 mps 715 mmHg 91%
    03:00 +6°C° 0 mm 1 mps 715 mmHg 91%
    04:00 +6°C° 0 mm 1 mps 715 mmHg 91%
    05:00 +6°C° 0 mm 1 mps 715 mmHg 91%
    06:00 +5°C° 0 mm 2 mps 715 mmHg 89%
    07:00 +5°C° 0 mm 2 mps 715 mmHg 88%
    08:00 +5°C° 0 mm 2 mps 716 mmHg 86%
    09:00 +7°C° 0 mm 2 mps 716 mmHg 78%
    10:00 +8°C° 0 mm 2 mps 716 mmHg 70%
    11:00 +9°C° 0 mm 3 mps 716 mmHg 62%
    12:00 +9°C° 0 mm 3 mps 716 mmHg 58%
    13:00 +10°C° 0 mm 3 mps 715 mmHg 55%
    14:00 +11°C° 0 mm 3 mps 715 mmHg 52%
    15:00 +10°C° 0 mm 3 mps 715 mmHg 55%
    16:00 +9°C° 0 mm 2 mps 715 mmHg 58%
    17:00 +8°C° 0 mm 2 mps 715 mmHg 61%
    18:00 +7°C° 0 mm 2 mps 715 mmHg 64%
    19:00 +7°C° 0 mm 1 mps 715 mmHg 68%
    20:00 +6°C° 0 mm 1 mps 716 mmHg 71%
    21:00 +5°C° 0 mm 1 mps 716 mmHg 71%
    22:00 +5°C° 0 mm 1 mps 716 mmHg 71%
    23:00 +5°C° 0 mm 1 mps 716 mmHg 71%
    Show more